Location: *
(49.4547°N, 7.9131°E)
Time: 07:07:59
(UTC+00:00)

Cosmos 1766 - Pass Details

Date: 22 September 2019
Orbit: 521 x 546 km, 82.5° (Epoch: 19 October)

Event Time Altitude Azimuth Distance (km) Brightness Sun altitude
Exits shadow 19:54:27 18° 215° (SW) 1,363 5.3 -23.6°
Maximum altitude 19:57:09 48° 284° (WNW) 708 4.2 -24.0°
Drops below altitude 10° 20:00:58 10° 360° (N) 1,790 6.3 -24.5°
Sets 20:03:10 0° 6° (N) 2,681 7.2 -24.8°
